FW7404 Weather Reports


time (UTC)temp
C
wind
direction
speed
KPH
gust
KPH
rain 1hr
cm
rain 24hr
cm
rain mn
cm
humidity
%
barometer
mb
20260506222438 12 290 6.4 9.7 0.00 0.00 0.00 42 1012.2
20260506221935 12 230 1.6 3.2 0.00 0.00 0.00 41 1012.4
20260506221432 12 285 1.6 3.2 0.00 0.00 0.00 42 1012.4
20260506220930 11 45 1.6 1.6 0.00 0.00 0.00 43 1012.5
20260506220425 11 292 3.2 4.8 0.00 0.00 0.00 44 1012.5
20260506215922 11 347 1.6 4.8 0.00 0.00 0.00 43 1012.2
20260506215418 11 333 4.8 8.0 0.00 0.00 0.00 44 1012.2
20260506214914 11 292 4.8 4.8 0.00 0.00 0.00 42 1012.1
20260506214411 11 272 3.2 4.8 0.00 0.00 0.00 42 1012.4
20260506213909 11 199 0.0 1.6 0.00 0.00 0.00 42 1012.1
20260506213406 11 37 3.2 4.8 0.00 0.00 0.00 43 1011.9
20260506212903 11 280 3.2 8.0 0.00 0.00 0.00 43 1012.4
20260506212359 11 326 3.2 4.8 0.00 0.00 0.00 43 1012.1
20260506211854 11 341 3.2 8.0 0.00 0.00 0.00 42 1012.1
20260506211350 11 291 1.6 4.8 0.00 0.00 0.00 41 1012.1
20260506210848 11 310 6.4 9.7 0.00 0.00 0.00 42 1012.0
20260506210344 12 300 4.8 12.9 0.00 0.00 0.00 43 1012.1
20260506205842 12 330 6.4 8.0 0.00 0.00 0.00 40 1012.2
20260506205337 12 294 4.8 8.0 0.00 0.00 0.00 44 1012.1
20260506204834 11 281 1.6 3.2 0.00 0.00 0.00 44 1012.5
20260506204332 11 276 3.2 11.3 0.00 0.00 0.00 41 1012.2
20260506203829 12 20 0.0 3.2 0.00 0.00 0.00 43 1012.2
20260506203326 11 267 3.2 8.0 0.00 0.00 0.00 41 1012.1
20260506202823 11 290 3.2 3.2 0.00 0.00 0.00 44 1012.1
20260506202320 11 299 6.4 12.9 0.00 0.00 0.00 43 1012.0
20260506201816 11 351 4.8 9.7 0.00 0.00 0.00 44 1012.1
20260506201314 11 353 4.8 4.8 0.00 0.00 0.00 44 1012.4
20260506200811 11 325 4.8 14.5 0.00 0.00 0.00 45 1012.2
20260506200307 11 19 6.4 8.0 0.00 0.00 0.00 44 1012.4
20260506195803 11 242 3.2 9.7 0.00 0.00 0.00 45 1012.5
20260506195300 11 1 8.0 12.9 0.00 0.00 0.00 45 1012.4
20260506194757 11 317 3.2 4.8 0.00 0.00 0.00 45 1012.4
20260506194253 11 39 8.0 12.9 0.00 0.00 0.00 44 1012.1
20260506193751 10 355 3.2 9.7 0.00 0.00 0.00 44 1012.4
20260506193242 11 301 8.0 11.3 0.00 0.00 0.00 43 1012.6
20260506192738 12 326 4.8 12.9 0.00 0.00 0.00 42 1012.7
20260506192236 11 274 4.8 8.0 0.00 0.00 0.00 46 1012.8
20260506191732 10 132 1.6 11.3 0.00 0.00 0.00 45 1012.7
20260506191228 10 268 9.7 12.9 0.00 0.00 0.00 44 1012.8
20260506190726 10 345 6.4 16.1 0.00 0.00 0.00 44 1012.6
20260506190222 10 337 6.4 9.7 0.00 0.00 0.00 44 1012.7
20260506185720 10 304 8.0 11.3 0.00 0.00 0.00 45 1012.7
20260506185216 10 270 3.2 4.8 0.00 0.00 0.00 44 1012.5
20260506184714 10 302 11.3 14.5 0.00 0.00 0.00 43 1012.5
20260506184210 11 336 9.7 11.3 0.00 0.00 0.00 44 1012.5
20260506183707 11 352 4.8 8.0 0.00 0.00 0.00 44 1012.4
20260506183203 11 273 1.6 9.7 0.00 0.00 0.00 43 1012.5
20260506182701 11 337 3.2 4.8 0.00 0.00 0.00 44 1012.4
20260506182158 11 343 8.0 8.0 0.00 0.00 0.00 45 1012.2
20260506181655 11 286 4.8 9.7 0.00 0.00 0.00 45 1012.4
20260506181152 11 295 8.0 11.3 0.00 0.00 0.00 43 1012.5
20260506180649 11 2 6.4 9.7 0.00 0.00 0.00 44 1012.4
20260506180146 10 324 4.8 9.7 0.00 0.00 0.00 45 1012.6
20260506175642 10 310 8.0 9.7 0.00 0.00 0.00 46 1012.6
20260506175139 10 306 4.8 9.7 0.00 0.00 0.00 47 1012.6
20260506174632 10 284 4.8 4.8 0.00 0.00 0.00 47 1012.7
20260506174128 10 277 6.4 11.3 0.00 0.00 0.00 46 1012.9
20260506173625 10 13 1.6 4.8 0.00 0.00 0.00 47 1012.8
20260506173122 10 309 8.0 16.1 0.00 0.00 0.00 46 1013.2
20260506172619 11 308 4.8 8.0 0.00 0.00 0.00 47 1013.0
20260506172115 10 232 8.0 11.3 0.00 0.00 0.00 46 1012.7
20260506171613 10 301 6.4 11.3 0.00 0.00 0.00 48 1012.9
20260506171110 10 326 4.8 12.9 0.00 0.00 0.00 48 1012.6
20260506170608 10 323 8.0 11.3 0.00 0.00 0.00 48 1012.8
20260506170105 10 234 4.8 9.7 0.00 0.00 0.00 49 1012.8
20260506165603 10 313 4.8 14.5 0.00 0.00 0.00 48 1012.8
20260506165053 10 306 6.4 11.3 0.00 0.00 0.00 48 1012.9
20260506164551 10 335 11.3 14.5 0.00 0.00 0.00 49 1012.7
20260506164048 10 325 4.8 8.0 0.00 0.00 0.00 49 1012.7
20260506163543 10 345 1.6 8.0 0.00 0.00 0.00 49 1012.6
20260506163039 10 24 3.2 11.3 0.00 0.00 0.00 50 1012.6
20260506162536 10 282 1.6 11.3 0.00 0.00 0.00 50 1012.4
20260506162033 10 350 14.5 20.9 0.00 0.00 0.00 48 1012.8
20260506161530 10 306 8.0 12.9 0.00 0.00 0.00 47 1012.7
20260506161022 10 334 12.9 14.5 0.00 0.00 0.00 48 1012.5
20260506160520 10 301 6.4 9.7 0.00 0.00 0.00 49 1012.6
20260506160017 10 300 8.0 11.3 0.00 0.00 0.00 47 1012.5
20260506155515 10 304 11.3 17.7 0.00 0.00 0.00 48 1012.5
20260506153651 10 279 8.0 12.9 0.00 0.00 0.00 47 1012.2
20260506153149 10 293 3.2 11.3 0.00 0.00 0.00 46 1012.0
20260506152646 11 293 8.0 11.3 0.00 0.00 0.00 45 1012.0
20260506152143 10 41 3.2 8.0 0.00 0.00 0.00 49 1012.0
20260506151642 10 289 8.0 11.3 0.00 0.00 0.00 49 1012.2
20260506151138 10 298 4.8 14.5 0.00 0.00 0.00 49 1012.2
20260506150635 10 301 8.0 17.7 0.00 0.00 0.00 48 1012.0
20260506150132 10 304 9.7 16.1 0.00 0.00 0.00 47 1011.9
20260506145629 10 311 4.8 8.0 0.00 0.00 0.00 50 1012.0
20260506145126 10 316 4.8 17.7 0.00 0.00 0.00 49 1012.1
20260506144623 10 350 6.4 9.7 0.00 0.00 0.00 51 1011.9
20260506144120 10 272 11.3 25.7 0.00 0.00 0.00 49 1012.0
20260506143618 11 330 9.7 17.7 0.00 0.00 0.00 51 1011.7
20260506143116 10 57 3.2 14.5 0.00 0.00 0.00 60 1011.6
20260506142614 10 354 6.4 11.3 0.00 0.00 0.00 55 1011.5
20260506142112 10 285 8.0 12.9 0.00 0.00 0.00 57 1011.8
20260506141609 10 310 8.0 14.5 0.00 0.00 0.00 53 1011.4
20260506141107 10 336 4.8 8.0 0.00 0.00 0.00 54 1011.5
20260506140604 10 284 6.4 8.0 0.00 0.00 0.00 55 1011.4
20260506135558 10 292 4.8 8.0 0.00 0.00 0.00 57 1011.3
20260506135054 10 288 4.8 11.3 0.00 0.00 0.00 56 1011.3
20260506134551 10 300 4.8 9.7 0.00 0.00 0.00 56 1011.1
20260506134047 10 200 3.2 11.3 0.00 0.00 0.00 56 1011.2
20260506133544 9 321 4.8 11.3 0.00 0.00 0.00 56 1011.1
20260506133041 9 336 6.4 11.3 0.00 0.00 0.00 54 1011.4
20260506132538 10 299 4.8 11.3 0.00 0.00 0.00 56 1011.0
20260506132036 9 345 6.4 8.0 0.00 0.00 0.00 57 1011.0
20260506131532 9 331 6.4 9.7 0.00 0.00 0.00 59 1011.1
20260506131029 9 64 0.0 4.8 0.00 0.00 0.00 60 1010.8
20260506130526 9 12 4.8 4.8 0.00 0.00 0.00 61 1010.9
20260506130023 8 328 8.0 9.7 0.00 0.00 0.00 61 1010.9
20260506125521 9 128 3.2 4.8 0.00 0.00 0.00 61 1010.8
20260506125019 8 325 3.2 8.0 0.00 0.00 0.00 62 1010.7
20260506124517 8 197 3.2 3.2 0.00 0.00 0.00 62 1010.8
20260506124014 8 281 3.2 4.8 0.00 0.00 0.00 63 1010.5
20260506123512 8 352 3.2 4.8 0.00 0.00 0.00 63 1010.6
20260506123010 8 307 3.2 3.2 0.00 0.00 0.00 63 1010.3
20260506122506 7 354 3.2 4.8 0.00 0.00 0.00 64 1010.4
20260506122005 7 264 4.8 4.8 0.00 0.00 0.00 65 1010.6
20260506121501 7 333 0.0 3.2 0.00 0.00 0.00 67 1010.5
20260506120958 6 295 3.2 4.8 0.00 0.00 0.00 67 1010.3
20260506120456 7 307 1.6 3.2 0.00 0.00 0.00 67 1010.3
20260506115953 7 322 1.6 3.2 0.00 0.00 0.00 67 1010.4
20260506115451 6 316 1.6 3.2 0.00 0.00 0.00 66 1010.5
20260506114949 7 295 1.6 1.6 0.00 0.00 0.00 67 1010.6
20260506114446 6 313 1.6 3.2 0.00 0.00 0.00 67 1010.2
20260506113944 6 309 1.6 3.2 0.00 0.00 0.00 67 1010.1
20260506113442 6 324 1.6 1.6 0.00 0.00 0.00 67 1010.1
20260506112938 6 302 1.6 3.2 0.00 0.00 0.00 66 1010.0
20260506112436 6 307 0.0 1.6 0.00 0.00 0.00 66 1009.7
20260506111933 6 287 1.6 1.6 0.00 0.00 0.00 66 1010.1
20260506111431 6 291 1.6 1.6 0.00 0.00 0.00 66 1010.0
20260506110928 6 310 1.6 1.6 0.00 0.00 0.00 65 1010.0
20260506110426 6 310 1.6 3.2 0.00 0.00 0.00 65 1009.8
20260506105922 6 328 0.0 1.6 0.00 0.00 0.00 65 1009.7
20260506105418 6 330 3.2 3.2 0.00 0.00 0.00 64 1009.6
20260506104916 7 321 0.0 3.2 0.00 0.00 0.00 63 1009.7
20260506104414 7 307 1.6 3.2 0.00 0.00 0.00 63 1010.0
20260506103911 7 321 4.8 4.8 0.00 0.00 0.00 62 1009.5
20260506103409 7 297 3.2 4.8 0.00 0.00 0.00 61 1009.4
20260506102905 7 339 3.2 4.8 0.00 0.00 0.00 61 1009.5
20260506102404 7 310 3.2 4.8 0.00 0.00 0.00 60 1009.4
20260506101901 7 309 8.0 9.7 0.00 0.00 0.00 60 1009.4
20260506101357 7 319 1.6 8.0 0.00 0.00 0.00 60 1009.5
20260506100854 7 313 3.2 4.8 0.00 0.00 0.00 61 1009.5
20260506100353 7 295 1.6 4.8 0.00 0.00 0.00 61 1009.2
20260506095850 7 305 3.2 3.2 0.00 0.00 0.00 61 1009.2
20260506095348 7 306 1.6 3.2 0.00 0.00 0.00 61 1009.4
20260506094845 7 312 3.2 3.2 0.00 0.00 0.00 60 1009.1
20260506094343 7 313 1.6 3.2 0.00 0.00 0.00 60 1009.1
20260506093841 7 317 1.6 3.2 0.00 0.00 0.00 60 1008.9
20260506093338 7 336 1.6 4.8 0.00 0.00 0.00 60 1008.7
20260506092835 7 334 4.8 4.8 0.00 0.00 0.00 60 1008.9
20260506092333 7 324 1.6 3.2 0.00 0.00 0.00 60 1008.9
20260506091830 7 304 1.6 3.2 0.00 0.00 0.00 59 1009.1
20260506091328 7 305 3.2 3.2 0.00 0.00 0.00 59 1009.0
20260506090825 7 315 3.2 3.2 0.00 0.00 0.00 59 1009.3
20260506090322 8 305 1.6 4.8 0.00 0.00 0.00 58 1008.9
20260506085819 8 299 4.8 4.8 0.00 0.00 0.00 58 1008.7
20260506085315 8 303 3.2 4.8 0.00 0.00 0.00 58 1008.4
20260506084812 8 336 1.6 3.2 0.00 0.00 0.00 58 1008.4
20260506084308 8 335 4.8 4.8 0.00 0.00 0.00 58 1008.6
20260506083805 8 312 3.2 3.2 0.00 0.00 0.00 58 1008.4
20260506083303 8 316 3.2 4.8 0.00 0.00 0.00 58 1008.7
20260506082800 8 320 1.6 4.8 0.00 0.00 0.00 58 1008.8
20260506082255 8 289 3.2 4.8 0.00 0.00 0.00 58 1008.8
20260506081753 8 325 4.8 4.8 0.00 0.00 0.00 58 1008.6
20260506081251 8 306 1.6 3.2 0.00 0.00 0.00 59 1008.4
20260506080748 8 314 3.2 3.2 0.00 0.00 0.00 58 1008.4
20260506080244 8 277 3.2 4.8 0.00 0.00 0.00 58 1008.7
20260506073228 8 289 4.8 4.8 0.00 0.00 0.00 59 1008.8
20260506072725 8 288 1.6 3.2 0.00 0.00 0.00 59 1008.8
20260506072223 8 317 1.6 4.8 0.00 0.00 0.00 59 1008.8
20260506071720 8 317 1.6 3.2 0.00 0.00 0.00 59 1008.4
20260506071218 8 315 1.6 4.8 0.00 0.00 0.00 59 1008.1
20260506070715 8 333 3.2 4.8 0.00 0.00 0.00 58 1008.4
20260506070212 8 319 1.6 3.2 0.00 0.00 0.00 58 1008.4
20260506062149 8 292 3.2 3.2 0.00 0.00 0.00 59 1008.7
20260506061645 8 285 1.6 3.2 0.00 0.00 0.00 59 1009.0
20260506061142 8 290 3.2 4.8 0.00 0.00 0.00 59 1008.9
20260506060641 8 303 1.6 4.8 0.00 0.00 0.00 58 1009.1
20260506060137 8 284 1.6 8.0 0.00 0.00 0.00 59 1009.1
20260506051109 8 294 3.2 3.2 0.00 0.00 0.00 60 1008.7
20260506050608 8 297 1.6 3.2 0.00 0.00 0.00 60 1008.8
20260506050105 8 315 1.6 3.2 0.00 0.00 0.00 59 1008.9
20260506045058 8 292 1.6 3.2 0.00 0.00 0.00 60 1008.8
20260506044556 8 302 1.6 1.6 0.00 0.00 0.00 60 1008.8
20260506044052 8 293 0.0 1.6 0.00 0.00 0.00 61 1008.4
20260506043549 8 301 0.0 1.6 0.00 0.00 0.00 60 1008.6
20260506043048 8 295 0.0 1.6 0.00 0.00 0.00 61 1008.8
20260506042547 8 304 1.6 1.6 0.00 0.00 0.00 60 1008.8
20260506042044 8 274 1.6 3.2 0.00 0.00 0.00 58 1008.8
20260506041543 8 289 1.6 1.6 0.00 0.00 0.00 59 1008.6
20260506041039 8 293 1.6 3.2 0.00 0.00 0.00 59 1008.8
20260506040537 8 270 3.2 3.2 0.00 0.00 0.00 59 1008.6
20260506040032 8 304 1.6 3.2 0.00 0.33 0.33 58 1008.4
20260506035530 8 297 0.0 1.6 0.00 0.33 0.33 60 1008.3
20260506035026 8 297 0.0 0.0 0.00 0.33 0.33 61 1008.3
20260506034524 8 296 0.0 0.0 0.00 0.33 0.33 60 1008.6
20260506034020 8 290 0.0 1.6 0.00 0.33 0.33 62 1008.6
20260506033518 8 278 0.0 0.0 0.00 0.33 0.33 62 1008.6
20260506033015 8 269 0.0 0.0 0.00 0.33 0.33 59 1008.3
20260506032512 8 262 0.0 0.0 0.00 0.33 0.33 57 1008.8
20260506032009 9 250 0.0 0.0 0.00 0.33 0.33 57 1008.4
20260506031507 9 249 0.0 0.0 0.00 0.33 0.33 58 1008.7
20260506031003 9 241 0.0 1.6 0.00 0.33 0.33 57 1008.9
20260506030501 9 258 1.6 3.2 0.00 0.33 0.33 55 1008.8
20260506025958 9 306 1.6 1.6 0.00 0.33 0.33 57 1008.7
20260506025455 9 310 0.0 1.6 0.00 0.33 0.33 56 1008.7
20260506024951 9 311 0.0 1.6 0.00 0.33 0.33 57 1008.4
20260506024448 9 296 0.0 0.0 0.00 0.33 0.33 57 1008.4
20260506023944 9 294 1.6 4.8 0.00 0.33 0.33 55 1008.8
20260506023441 9 279 0.0 0.0 0.00 0.33 0.33 56 1008.9
20260506022938 9 278 1.6 1.6 0.00 0.33 0.33 55 1008.8
20260506022435 9 224 3.2 3.2 0.00 0.33 0.33 56 1008.4
20260506021933 9 297 0.0 0.0 0.00 0.33 0.33 54 1008.8
20260506021430 10 298 0.0 1.6 0.00 0.33 0.33 53 1008.6
20260506020927 10 312 1.6 1.6 0.00 0.33 0.33 53 1008.6
20260506020425 10 295 0.0 1.6 0.00 0.33 0.33 53 1008.4
20260506015922 10 299 0.0 1.6 0.00 0.33 0.33 52 1008.7
20260506015420 10 271 1.6 3.2 0.00 0.33 0.33 51 1008.4
20260506014916 10 297 0.0 1.6 0.00 0.33 0.33 51 1008.4
20260506014413 10 288 1.6 3.2 0.00 0.33 0.33 50 1008.3
20260506013910 10 311 0.0 1.6 0.00 0.33 0.33 49 1008.2
20260506013408 10 308 3.2 4.8 0.00 0.33 0.33 49 1008.3
20260506012903 10 302 1.6 1.6 0.00 0.33 0.33 49 1008.1
20260506012400 10 315 1.6 1.6 0.00 0.33 0.33 47 1008.1
20260506011858 10 307 1.6 1.6 0.00 0.33 0.33 47 1008.0
20260506011355 10 304 6.4 8.0 0.00 0.33 0.33 46 1007.8
20260506010852 10 300 3.2 3.2 0.00 0.33 0.33 46 1008.0
20260506010350 10 268 3.2 4.8 0.00 0.33 0.33 47 1007.9
20260506005846 10 311 3.2 3.2 0.00 0.33 0.33 47 1007.9
20260506005343 10 324 6.4 9.7 0.00 0.33 0.33 46 1008.1
20260506004839 10 300 4.8 11.3 0.00 0.33 0.33 47 1008.0
20260506004337 10 301 3.2 4.8 0.00 0.33 0.33 49 1008.1
20260506003833 10 270 3.2 8.0 0.00 0.33 0.33 51 1008.2
20260506003329 10 317 1.6 3.2 0.00 0.33 0.33 48 1007.9
20260506002826 10 304 0.0 1.6 0.00 0.33 0.33 49 1008.0
20260506002322 11 304 3.2 3.2 0.00 0.33 0.33 47 1008.0
20260506001818 11 265 1.6 3.2 0.00 0.33 0.33 48 1008.0
20260506001315 11 246 1.6 4.8 0.00 0.33 0.33 48 1008.1
20260506000812 11 225 4.8 11.3 0.00 0.33 0.33 48 1007.7
20260506000310 11 314 3.2 4.8 0.00 0.33 0.33 51 1007.8
20260505235806 11 277 1.6 3.2 0.00 0.33 0.33 53 1007.7
20260505235305 11 277 3.2 8.0 0.00 0.33 0.33 51 1007.6
20260505234801 11 292 1.6 4.8 0.00 0.33 0.33 53 1007.7
20260505234259 11 297 1.6 3.2 0.00 0.33 0.33 53 1007.3
20260505233755 11 304 1.6 3.2 0.00 0.33 0.33 51 1007.3
20260505233253 11 296 0.0 3.2 0.00 0.33 0.33 52 1007.3
20260505232750 11 305 1.6 3.2 0.00 0.33 0.33 52 1007.3
20260505232247 11 312 3.2 4.8 0.00 0.33 0.33 51 1007.4
20260505231744 11 288 1.6 4.8 0.00 0.33 0.33 51 1007.3
20260505231243 11 299 3.2 4.8 0.00 0.33 0.33 51 1007.5
20260505230741 11 317 1.6 3.2 0.00 0.33 0.33 52 1007.4
20260505230237 11 309 0.0 4.8 0.00 0.33 0.33 52 1007.3
20260505225734 11 257 4.8 9.7 0.00 0.33 0.33 51 1007.3
20260505225231 11 304 4.8 8.0 0.00 0.33 0.33 51 1007.4
20260505224726 11 312 1.6 3.2 0.00 0.33 0.33 53 1007.4
20260505224224 11 282 3.2 8.0 0.00 0.33 0.33 51 1007.5
20260505223721 12 252 1.6 8.0 0.00 0.33 0.33 52 1007.4
20260505223217 12 307 1.6 3.2 0.00 0.33 0.33 53 1007.4